CAL121 ROAH-RCTP

Flight info

Callsign CAL121
Flight time N/A
Altitude 40000
Route GANJU Y576 LILRA Y573 SEDKU R595 GRACE GRACE1A
Aircraft A359/H-SDE2E3GHIJ3J4J5LM1ORWXY/LB1D1

Departure

Time 2026-04-25 13:28
Airport Naha International Airport (ROAH)

Arrival

Time N/A
Airport Taiwan Taoyuan International Airport (RCTP)
Time Latitude Longitude Altitude Speed Heading
2026-04-25 12:40 26.21006 127.64964 28 ft 0 kts 87°
2026-04-25 13:19 26.21006 127.64961 28 ft 3 kts 87°
2026-04-25 13:19 26.21006 127.64963 28 ft 4 kts 87°
2026-04-25 13:20 26.21008 127.64921 25 ft 4 kts 109°
2026-04-25 13:20 26.21014 127.64904 25 ft 4 kts 127°
2026-04-25 13:20 26.21037 127.64884 25 ft 4 kts 171°
2026-04-25 13:20 26.21062 127.64882 25 ft 4 kts 177°
2026-04-25 13:21 26.21076 127.64882 25 ft 0 kts 178°
2026-04-25 13:21 26.21076 127.64881 25 ft 0 kts 178°
2026-04-25 13:23 26.21045 127.64883 26 ft 9 kts 178°
2026-04-25 13:23 26.20951 127.64886 29 ft 18 kts 178°
2026-04-25 13:24 26.20861 127.64842 27 ft 13 kts 243°
2026-04-25 13:24 26.20857 127.64772 26 ft 11 kts 288°
2026-04-25 13:25 26.20862 127.64758 25 ft 5 kts 293°
2026-04-25 13:25 26.20887 127.64697 24 ft 12 kts 294°
2026-04-25 13:25 26.20902 127.64644 22 ft 0 kts 276°
2026-04-25 13:27 26.20895 127.64584 27 ft 18 kts 251°
2026-04-25 13:27 26.20772 127.64531 27 ft 27 kts 179°
2026-04-25 13:27 26.20411 127.64552 28 ft 92 kts 178°
2026-04-25 13:28 26.19465 127.64592 28 ft 174 kts 177°
2026-04-25 13:28 26.19054 127.64610 117 ft 190 kts 177°
2026-04-25 13:28 26.16585 127.64726 1458 ft 232 kts 176°
2026-04-25 13:28 26.14897 127.64813 2147 ft 253 kts 177°
2026-04-25 13:29 26.13116 127.64842 2906 ft 259 kts 185°
2026-04-25 13:29 26.11359 127.64416 3731 ft 260 kts 198°
2026-04-25 13:29 26.09628 127.63795 4459 ft 262 kts 200°